SAUDISAT 1A 1 26545U 00057A 12040.24341179 .00000460 00000-0 76868-4 0 688 2 26545 64.5557 16.7843 0034545 328.6841 31.2213 14.81358926614390 UNISAT 1 26547U 00057C 12041.17684523 .00001246 00000-0 16681-3 0 988 2 26547 64.5568 349.7398 0035158 338.1388 21.8222 14.83660544615032 SAUDISAT 1B 1 26549U 00057E 12040.48663932 .00000432 00000-0 75146-4 0 1590 2 26549 64.5529 38.0826 0034979 336.9979 22.9558 14.80172763613981 MOZHAYETS 1 27560U 02054B 12041.01805652 .00000223 00000-0 60552-4 0 2022 2 27560 97.9424 209.5527 0043703 74.9079 285.6936 14.55508315487500 SAUDISAT 1C 1 27607U 02058C 12040.79289723 .00000494 00000-0 95615-4 0 6849 2 27607 64.5605 325.4226 0085188 273.5273 85.6081 14.72207806491068 UNISAT 2 1 27608U 02058D 12040.74587999 .00000239 00000-0 54947-4 0 6931 2 27608 64.5582 277.3201 0069069 265.4935 93.8256 14.75075967492066 SAUDISAT 2 1 28371U 04025F 12041.15686409 .00000154 00000-0 47304-4 0 5492 2 28371 97.9312 53.5094 0025088 284.9607 74.8809 14.53170045403934 UNISAT 3 1 28373U 04025H 12041.04069443 .00000263 00000-0 87229-4 0 1593 2 28373 98.0850 20.4641 0071324 33.9442 326.6289 14.43735255401767 SSETI EXPRESS (XO-53) 1 28894U 05043E 12040.84412907 .00000203 00000-0 51485-4 0 2990 2 28894 97.9279 271.3150 0017082 193.8770 166.1963 14.60017048335024 SAUDISAT 3 1 31118U 07012B 12041.12786522 .00000079 00000-0 21924-4 0 1489 2 31118 97.8908 102.7095 0016447 40.2171 320.0258 14.68216236258192